GW4042 Weather Reports


time (UTC)temp
C
wind
direction
speed
KPH
gust
KPH
rain 1hr
cm
rain 24hr
cm
rain mn
cm
humidity
%
barometer
mb
20260503180016 18 236 4.8 8.0 0.00 0.00 0.00 65 1014.4
20260503174526 17 243 1.6 4.8 0.00 0.00 0.00 69 1014.4
20260503173029 16 254 0.0 4.8 0.00 0.00 0.00 73 1014.7
20260503171526 15 305 0.0 1.6 0.00 0.00 0.00 76 1014.8
20260503081525 10 140 0.0 0.0 0.00 0.00 0.00 91 1015.1
20260503071522 11 121 0.0 0.0 0.00 0.00 0.00 89 1015.2
20260503054508 12 123 0.0 0.0 0.00 0.00 0.00 85 1014.7
20260503053006 12 123 0.0 0.0 0.00 0.00 0.00 83 1014.9
20260503050030 13 147 0.0 4.8 0.00 0.00 0.00 81 1014.7
20260503044520 13 163 0.0 1.6 0.00 0.00 0.00 80 1014.8
20260503043014 14 155 0.0 1.6 0.00 0.00 0.00 78 1014.7
20260503041513 15 155 0.0 1.6 0.00 0.00 0.00 77 1014.7
20260503040012 15 155 0.0 4.8 0.00 0.00 0.00 76 1014.4
20260503034507 16 134 0.0 0.0 0.00 0.00 0.00 73 1014.2
20260503033022 17 134 0.0 0.0 0.00 0.00 0.00 69 1014.0
20260503031521 17 110 0.0 6.4 0.00 0.00 0.00 67 1014.0
20260503024519 20 175 1.6 3.2 0.00 0.00 0.00 58 1014.1
20260503023013 22 162 0.0 6.4 0.00 0.00 0.00 54 1014.1
20260503020015 22 184 6.4 16.1 0.00 0.00 0.00 48 1014.1
20260503014527 22 240 4.8 19.3 0.00 0.00 0.00 50 1014.1
20260503011524 21 243 19.3 27.4 0.00 0.00 0.00 53 1014.2
20260503010004 20 247 16.1 22.5 0.00 0.00 0.00 58 1014.2
20260503004503 20 232 16.1 22.5 0.00 0.00 0.00 62 1014.2
20260503003003 19 234 16.1 25.7 0.00 0.00 0.00 64 1014.2
20260503001516 19 228 19.3 24.1 0.00 0.00 0.00 65 1014.1
20260502234518 19 229 16.1 22.5 0.00 0.00 0.00 68 1014.3
20260502233010 18 250 19.3 24.1 0.00 0.00 0.00 69 1014.4
20260502231507 19 265 20.9 27.4 0.00 0.00 0.00 66 1014.6
20260502230019 19 238 19.3 25.7 0.00 0.00 0.00 65 1014.6
20260502223020 19 244 17.7 22.5 0.00 0.00 0.00 67 1015.1
20260502221515 18 245 16.1 25.7 0.00 0.00 0.00 68 1015.2
20260502220013 18 245 17.7 22.5 0.00 0.00 0.00 69 1015.3
20260502214516 18 234 17.7 22.5 0.00 0.00 0.00 69 1015.5
20260502213009 18 239 19.3 24.1 0.00 0.00 0.00 69 1015.7
20260502210005 18 249 14.5 20.9 0.00 0.00 0.00 69 1016.0
20260502204504 18 242 17.7 22.5 0.00 0.00 0.00 69 1016.1
20260502201521 17 250 16.1 22.5 0.00 0.00 0.00 70 1016.3
20260502200020 17 240 14.5 17.7 0.00 0.00 0.00 70 1016.5
20260502194515 17 258 16.1 19.3 0.00 0.00 0.00 73 1016.5
20260502193014 17 236 9.7 14.5 0.00 0.00 0.00 74 1016.7
20260502191512 17 229 11.3 16.1 0.00 0.00 0.00 74 1016.8
20260502184534 16 235 9.7 14.5 0.00 0.00 0.00 77 1017.2
20260502183029 16 247 6.4 19.3 0.00 0.00 0.00 77 1017.5